sat.trackr.live / text

‹ back to catalog

STARLINK-32814

NORAD 62871 · 2025-022T

PAYLOAD ACTIVE UNKNOWN

§ Identity

Operator
Country
US
Launch date
2025-02-01
Launch site
AFWTR
Launch vehicle
Mass (kg)
RCS (m²)

Purposes: comms

External: N2YO · Heavens-Above · Gunter

§ Orbital elements

Epoch: 2026-05-25T03:17:29.878368Z

Period
94.10 min
Inclination
53.1569°
Eccentricity
0.0001283
Mean motion
15.30210424 rev/d
Perigee alt
474.3 km
Apogee alt
476.1 km
Semi-major
6,853.3 km
B*
6.3491e-4
RAAN
134.5902°
Arg perigee
93.4218°
Mean anomaly
266.6930°
Rev number
7,360

§ Raw data

STARLINK-328141 62871U 25022T   26145.13715137  .00018498  00000+0  63491-3 0  99962 62871  53.1569 134.5902 0001283  93.4218 266.6930 15.30210424 73600

JSON: /api/v1/satellites/62871 · /tle

For live sub-satellite position, see the globe view (requires WebGL).

§ Visibility from observer

Set your observer location to see the next 7 days of passes ≥ 10°. The values pass through the URL so the page stays shareable.

No JS? Fill the form by hand. The geolocation button needs JavaScript.